Year,Month,Day,Hour,Minute,Value (Times are PST for temperature in C)
2011,05,07,06,28,6.00
2011,05,07,06,29,6.00
2011,05,07,06,30,6.00
2011,05,07,06,31,6.00
2011,05,07,06,32,6.00
2011,05,07,06,33,6.10
2011,05,07,06,34,6.10
2011,05,07,06,35,6.10
2011,05,07,06,36,6.10
2011,05,07,06,37,6.20
2011,05,07,06,38,6.20
2011,05,07,06,39,6.20
2011,05,07,06,40,6.20
2011,05,07,06,41,6.20
2011,05,07,06,42,6.20
2011,05,07,06,43,6.30
2011,05,07,06,44,6.20
2011,05,07,06,45,6.30
2011,05,07,06,46,6.30
2011,05,07,06,47,6.30
2011,05,07,06,48,6.20
2011,05,07,06,49,6.30
2011,05,07,06,50,6.20
2011,05,07,06,51,6.20
2011,05,07,06,52,6.20
2011,05,07,06,53,6.20
2011,05,07,06,54,6.20
2011,05,07,06,55,6.30
2011,05,07,06,56,6.30
2011,05,07,06,57,6.30
2011,05,07,06,58,6.30
2011,05,07,06,59,6.40
2011,05,07,07,00,6.40
2011,05,07,07,01,6.40
2011,05,07,07,02,6.40
2011,05,07,07,03,6.50
2011,05,07,07,04,6.50
2011,05,07,07,05,6.50
2011,05,07,07,06,6.60
2011,05,07,07,07,6.60
2011,05,07,07,08,6.60
2011,05,07,07,09,6.60
2011,05,07,07,10,6.60
2011,05,07,07,11,6.60
2011,05,07,07,12,6.70
2011,05,07,07,13,6.70
2011,05,07,07,14,6.70
2011,05,07,07,15,6.70
2011,05,07,07,16,6.70
2011,05,07,07,17,6.80
2011,05,07,07,18,6.80
2011,05,07,07,19,6.80
2011,05,07,07,20,6.80
2011,05,07,07,21,6.80
2011,05,07,07,22,6.80
2011,05,07,07,23,6.90
2011,05,07,07,24,6.90
2011,05,07,07,25,6.90
2011,05,07,07,26,6.90
2011,05,07,07,27,6.90
2011,05,07,07,28,6.90
2011,05,07,07,29,7.00
2011,05,07,07,30,7.00
2011,05,07,07,31,7.00
2011,05,07,07,32,7.10
2011,05,07,07,33,7.10
2011,05,07,07,34,7.10
2011,05,07,07,35,7.10
2011,05,07,07,36,7.10
2011,05,07,07,37,7.10
2011,05,07,07,38,7.10
2011,05,07,07,39,7.10
2011,05,07,07,40,7.10
2011,05,07,07,41,7.10
2011,05,07,07,42,7.10
2011,05,07,07,43,7.10
2011,05,07,07,44,7.10
2011,05,07,07,45,7.10
2011,05,07,07,46,7.10
2011,05,07,07,47,7.10
2011,05,07,07,48,7.10
2011,05,07,07,49,7.10
2011,05,07,07,50,7.10
2011,05,07,07,51,7.10
2011,05,07,07,52,7.20
2011,05,07,07,53,7.20
2011,05,07,07,54,7.20
2011,05,07,07,55,7.20
2011,05,07,07,56,7.20
2011,05,07,07,57,7.20
2011,05,07,07,58,7.20
2011,05,07,07,59,7.20
2011,05,07,08,00,7.20
2011,05,07,08,01,7.20
2011,05,07,08,02,7.20
2011,05,07,08,03,7.30
2011,05,07,08,04,7.30
2011,05,07,08,05,7.40
2011,05,07,08,06,7.40
2011,05,07,08,07,7.50
2011,05,07,08,08,7.50
2011,05,07,08,09,7.60
2011,05,07,08,10,7.60
2011,05,07,08,11,7.60
2011,05,07,08,12,7.70
2011,05,07,08,13,7.70
2011,05,07,08,14,7.70
2011,05,07,08,15,7.70
2011,05,07,08,16,7.80
2011,05,07,08,17,7.80
2011,05,07,08,18,7.80
2011,05,07,08,19,7.90
2011,05,07,08,20,7.90
2011,05,07,08,21,7.90
2011,05,07,08,22,7.90
2011,05,07,08,23,8.00
2011,05,07,08,24,8.00
2011,05,07,08,25,8.10
2011,05,07,08,26,8.10
2011,05,07,08,27,8.20
2011,05,07,08,28,8.20
2011,05,07,08,29,8.30
2011,05,07,08,30,8.30
2011,05,07,08,31,8.30
2011,05,07,08,32,8.40
2011,05,07,08,33,8.40
2011,05,07,08,34,8.40
2011,05,07,08,35,8.40
2011,05,07,08,36,8.50
2011,05,07,08,37,8.50
2011,05,07,08,38,8.50
2011,05,07,08,39,8.50
2011,05,07,08,40,8.60
2011,05,07,08,41,8.60
2011,05,07,08,42,8.60
2011,05,07,08,43,8.60
2011,05,07,08,44,8.60
2011,05,07,08,45,8.70
2011,05,07,08,46,8.60
2011,05,07,08,47,8.70
2011,05,07,08,48,8.70
2011,05,07,08,49,8.70
2011,05,07,08,50,8.70
2011,05,07,08,51,8.70
2011,05,07,08,52,8.70
2011,05,07,08,53,8.70
2011,05,07,08,54,8.70
2011,05,07,08,55,8.80
2011,05,07,08,56,8.80
2011,05,07,08,57,8.80
2011,05,07,08,58,8.80
2011,05,07,08,59,8.90
2011,05,07,09,00,8.90
2011,05,07,09,01,8.90
2011,05,07,09,02,8.90
2011,05,07,09,03,8.90
2011,05,07,09,04,8.90
2011,05,07,09,05,8.90
2011,05,07,09,06,9.00
2011,05,07,09,07,9.00
2011,05,07,09,08,9.00
2011,05,07,09,09,9.00
2011,05,07,09,10,9.00
2011,05,07,09,11,9.00
2011,05,07,09,12,9.00
2011,05,07,09,13,9.00
2011,05,07,09,14,9.00
2011,05,07,09,15,9.00
2011,05,07,09,16,9.10
2011,05,07,09,17,9.10
2011,05,07,09,18,9.10
2011,05,07,09,19,9.10
2011,05,07,09,20,9.20
2011,05,07,09,21,9.20
2011,05,07,09,22,9.30
2011,05,07,09,23,9.30
2011,05,07,09,24,9.30
2011,05,07,09,25,9.40
2011,05,07,09,26,9.50
2011,05,07,09,27,9.50
2011,05,07,09,28,9.60
2011,05,07,09,29,9.60
2011,05,07,09,30,9.60
2011,05,07,09,31,9.60
2011,05,07,09,32,9.60
2011,05,07,09,33,9.60
2011,05,07,09,34,9.60
2011,05,07,09,35,9.70
2011,05,07,09,36,9.70
2011,05,07,09,37,9.70
2011,05,07,09,38,9.80
2011,05,07,09,39,9.80
2011,05,07,09,40,9.80
2011,05,07,09,41,9.90
2011,05,07,09,42,10.00
2011,05,07,09,43,10.10
2011,05,07,09,44,10.20
2011,05,07,09,45,10.30
2011,05,07,09,46,10.30
2011,05,07,09,47,10.30
2011,05,07,09,48,10.30
2011,05,07,09,49,10.30
2011,05,07,09,50,10.30
2011,05,07,09,51,10.30
2011,05,07,09,52,10.20
2011,05,07,09,53,10.20
2011,05,07,09,54,10.20
2011,05,07,09,55,10.20
2011,05,07,09,56,10.20
2011,05,07,09,57,10.20
2011,05,07,09,58,10.10
2011,05,07,09,59,10.00
2011,05,07,10,00,9.90
2011,05,07,10,01,9.80
2011,05,07,10,02,9.80
2011,05,07,10,03,9.70
2011,05,07,10,04,9.70
2011,05,07,10,05,9.70
2011,05,07,10,06,9.70
2011,05,07,10,07,9.70
2011,05,07,10,08,9.80
2011,05,07,10,09,9.80
2011,05,07,10,10,9.80
2011,05,07,10,11,9.80
2011,05,07,10,12,9.80
2011,05,07,10,13,9.80
2011,05,07,10,14,9.90
2011,05,07,10,15,9.90
2011,05,07,10,16,9.90
2011,05,07,10,17,10.00
2011,05,07,10,18,10.00
2011,05,07,10,19,10.00
2011,05,07,10,20,9.90
2011,05,07,10,21,9.90
2011,05,07,10,22,9.90
2011,05,07,10,23,9.90
2011,05,07,10,24,9.90
2011,05,07,10,25,9.90
2011,05,07,10,26,10.00
2011,05,07,10,27,10.00
2011,05,07,10,28,10.00
2011,05,07,10,29,10.00
2011,05,07,10,30,9.90
2011,05,07,10,31,9.80
2011,05,07,10,32,9.70
2011,05,07,10,33,9.70
2011,05,07,10,34,9.70
2011,05,07,10,35,9.70
2011,05,07,10,36,9.70
2011,05,07,10,37,9.60
2011,05,07,10,38,9.60
2011,05,07,10,39,9.50
2011,05,07,10,40,9.50
2011,05,07,10,41,9.60
2011,05,07,10,42,9.60
2011,05,07,10,43,9.60
2011,05,07,10,44,9.70
2011,05,07,10,45,9.80
2011,05,07,10,46,9.80
2011,05,07,10,47,9.90
2011,05,07,10,48,10.00
2011,05,07,10,49,10.00
2011,05,07,10,50,10.00
2011,05,07,10,51,10.00
2011,05,07,10,52,10.00
2011,05,07,10,53,10.10
2011,05,07,10,54,10.10
2011,05,07,10,55,10.20
2011,05,07,10,56,10.20
2011,05,07,10,57,10.20
2011,05,07,10,58,10.20
2011,05,07,10,59,10.20
2011,05,07,11,00,10.20
2011,05,07,11,01,10.20
2011,05,07,11,02,10.30
2011,05,07,11,03,10.30
2011,05,07,11,04,10.40
2011,05,07,11,05,10.40
2011,05,07,11,06,10.30
2011,05,07,11,07,10.30
2011,05,07,11,08,10.20
2011,05,07,11,09,10.20
2011,05,07,11,10,10.20
2011,05,07,11,11,10.20
2011,05,07,11,12,10.30
2011,05,07,11,13,10.30
2011,05,07,11,14,10.40
2011,05,07,11,15,10.40
2011,05,07,11,16,10.40
2011,05,07,11,17,10.40
2011,05,07,11,18,10.30
2011,05,07,11,19,10.20
2011,05,07,11,20,10.20
2011,05,07,11,21,10.20
2011,05,07,11,22,10.10
2011,05,07,11,23,10.10
2011,05,07,11,24,10.00
2011,05,07,11,25,10.00
2011,05,07,11,26,10.10
2011,05,07,11,27,10.10
2011,05,07,11,28,10.10
2011,05,07,11,29,10.10
2011,05,07,11,30,10.10
2011,05,07,11,31,10.10
2011,05,07,11,32,10.10
2011,05,07,11,33,10.20
2011,05,07,11,34,10.20
2011,05,07,11,35,10.10
2011,05,07,11,36,10.00
2011,05,07,11,37,9.90
2011,05,07,11,38,9.90
2011,05,07,11,39,9.90
2011,05,07,11,40,9.90
2011,05,07,11,41,9.80
2011,05,07,11,42,9.80
2011,05,07,11,43,9.80
2011,05,07,11,44,9.80
2011,05,07,11,45,9.80
2011,05,07,11,46,9.80
2011,05,07,11,47,9.80
2011,05,07,11,48,9.80
2011,05,07,11,49,9.80
2011,05,07,11,50,9.80
2011,05,07,11,51,9.70
2011,05,07,11,52,9.60
2011,05,07,11,53,9.60
2011,05,07,11,54,9.60
2011,05,07,11,55,9.60
2011,05,07,11,56,9.60
2011,05,07,11,57,9.60
2011,05,07,11,58,9.50
2011,05,07,11,59,9.40
2011,05,07,12,00,9.40
2011,05,07,12,01,9.40
2011,05,07,12,02,9.50
2011,05,07,12,03,9.50
2011,05,07,12,04,9.50
2011,05,07,12,05,9.40
2011,05,07,12,06,9.40
2011,05,07,12,07,9.30
2011,05,07,12,08,9.30
2011,05,07,12,09,9.30
2011,05,07,12,10,9.30
2011,05,07,12,11,9.30
2011,05,07,12,12,9.30
2011,05,07,12,13,9.30
2011,05,07,12,14,9.30
2011,05,07,12,15,9.30
2011,05,07,12,16,9.30
2011,05,07,12,17,9.30
2011,05,07,12,18,9.30
2011,05,07,12,19,9.30
2011,05,07,12,20,9.40
2011,05,07,12,21,9.40
2011,05,07,12,22,9.50
2011,05,07,12,23,9.50
2011,05,07,12,24,9.40
2011,05,07,12,25,9.40
2011,05,07,12,26,9.50
2011,05,07,12,27,9.50
2011,05,07,12,28,9.50
2011,05,07,12,29,9.50
2011,05,07,12,30,9.50
2011,05,07,12,31,9.50
2011,05,07,12,32,9.50
2011,05,07,12,33,9.60
2011,05,07,12,34,9.60
2011,05,07,12,35,9.60
2011,05,07,12,36,9.70
2011,05,07,12,37,9.70
2011,05,07,12,38,9.80
2011,05,07,12,39,9.80
2011,05,07,12,40,9.90
2011,05,07,12,41,10.00
2011,05,07,12,42,10.00
2011,05,07,12,43,10.10
2011,05,07,12,44,10.10
2011,05,07,12,45,10.10
2011,05,07,12,46,10.10
2011,05,07,12,47,10.10
2011,05,07,12,48,10.20
2011,05,07,12,49,10.20
2011,05,07,12,50,10.30
2011,05,07,12,51,10.40
2011,05,07,12,52,10.40
2011,05,07,12,53,10.50
2011,05,07,12,54,10.40
2011,05,07,12,55,10.40
2011,05,07,12,56,10.40
2011,05,07,12,57,10.30
2011,05,07,12,58,10.30
2011,05,07,12,59,10.30
2011,05,07,13,00,10.20
2011,05,07,13,01,10.20
2011,05,07,13,02,10.10
2011,05,07,13,03,10.20
2011,05,07,13,04,10.20
2011,05,07,13,05,10.10
2011,05,07,13,06,10.20
2011,05,07,13,07,10.10
2011,05,07,13,08,10.10
2011,05,07,13,09,10.10
2011,05,07,13,10,10.20
2011,05,07,13,11,10.20
2011,05,07,13,12,10.10
2011,05,07,13,13,10.20
2011,05,07,13,14,10.30
2011,05,07,13,15,10.30
2011,05,07,13,16,10.40
2011,05,07,13,17,10.40
2011,05,07,13,18,10.40
2011,05,07,13,19,10.40
2011,05,07,13,20,10.40
2011,05,07,13,21,10.40
2011,05,07,13,22,10.40
2011,05,07,13,23,10.40
2011,05,07,13,24,10.40
2011,05,07,13,25,10.30
2011,05,07,13,26,10.30
2011,05,07,13,27,10.30
2011,05,07,13,28,10.40
2011,05,07,13,29,10.40
2011,05,07,13,30,10.40
2011,05,07,13,31,10.40
2011,05,07,13,32,10.40
2011,05,07,13,33,10.40
2011,05,07,13,34,10.40
2011,05,07,13,35,10.30
2011,05,07,13,36,10.30
2011,05,07,13,37,10.30
2011,05,07,13,38,10.30
2011,05,07,13,39,10.30
2011,05,07,13,40,10.30
2011,05,07,13,41,10.30
2011,05,07,13,42,10.20
2011,05,07,13,43,10.20
2011,05,07,13,44,10.20
2011,05,07,13,45,10.20
2011,05,07,13,46,10.20
2011,05,07,13,47,10.20
2011,05,07,13,48,10.30
2011,05,07,13,49,10.40
2011,05,07,13,50,10.60
2011,05,07,13,51,10.70
2011,05,07,13,52,10.70
2011,05,07,13,53,10.80
2011,05,07,13,54,10.80
2011,05,07,13,55,10.90
2011,05,07,13,56,11.00
2011,05,07,13,57,11.10
2011,05,07,13,58,11.10
2011,05,07,13,59,11.00
2011,05,07,14,00,11.00
2011,05,07,14,01,11.00
2011,05,07,14,02,11.00
2011,05,07,14,03,10.90
2011,05,07,14,04,11.00
2011,05,07,14,05,11.10
2011,05,07,14,06,11.20
2011,05,07,14,07,11.10
2011,05,07,14,08,11.10
2011,05,07,14,09,11.10
2011,05,07,14,10,11.10
2011,05,07,14,11,11.10
2011,05,07,14,12,11.10
2011,05,07,14,13,11.00
2011,05,07,14,14,10.90
2011,05,07,14,15,10.80
2011,05,07,14,16,10.80
2011,05,07,14,17,10.70
2011,05,07,14,18,10.50
2011,05,07,14,19,10.50
2011,05,07,14,20,10.40
2011,05,07,14,21,10.40
2011,05,07,14,22,10.40
2011,05,07,14,23,10.40
2011,05,07,14,24,10.40
2011,05,07,14,25,10.30
2011,05,07,14,26,10.30
2011,05,07,14,27,10.30
2011,05,07,14,28,10.30
2011,05,07,14,29,10.20
2011,05,07,14,30,10.20
2011,05,07,14,31,10.20
2011,05,07,14,32,10.10
2011,05,07,14,33,10.00
2011,05,07,14,34,9.90
2011,05,07,14,35,9.90
2011,05,07,14,36,9.80
2011,05,07,14,37,9.70
2011,05,07,14,38,9.70
2011,05,07,14,39,9.60
2011,05,07,14,40,9.50
2011,05,07,14,41,9.50
2011,05,07,14,42,9.50
2011,05,07,14,43,9.50
2011,05,07,14,44,9.50
2011,05,07,14,45,9.50
2011,05,07,14,46,9.60
2011,05,07,14,47,9.60
2011,05,07,14,48,9.60
2011,05,07,14,49,9.70
2011,05,07,14,50,9.80
2011,05,07,14,51,9.90
2011,05,07,14,52,10.00
2011,05,07,14,53,10.00
2011,05,07,14,54,10.10
2011,05,07,14,55,10.20
2011,05,07,14,56,10.30
2011,05,07,14,57,10.30
2011,05,07,14,58,10.30
2011,05,07,14,59,10.40
2011,05,07,15,00,10.40
2011,05,07,15,01,10.50
2011,05,07,15,02,10.50
2011,05,07,15,03,10.50
2011,05,07,15,04,10.50
2011,05,07,15,05,10.60
2011,05,07,15,06,10.60
2011,05,07,15,07,10.70
2011,05,07,15,08,10.70
2011,05,07,15,09,10.70
2011,05,07,15,10,10.60
2011,05,07,15,11,10.60
2011,05,07,15,12,10.60
2011,05,07,15,13,10.60
2011,05,07,15,14,10.50
2011,05,07,15,15,10.40
2011,05,07,15,16,10.30
2011,05,07,15,17,10.30
2011,05,07,15,18,10.30
2011,05,07,15,19,10.30
2011,05,07,15,20,10.30
2011,05,07,15,21,10.30
2011,05,07,15,22,10.30
2011,05,07,15,23,10.30
2011,05,07,15,24,10.30
2011,05,07,15,25,10.30
2011,05,07,15,26,10.30
2011,05,07,15,27,10.30
2011,05,07,15,28,10.40
2011,05,07,15,29,10.40
2011,05,07,15,30,10.50
2011,05,07,15,31,10.50
2011,05,07,15,32,10.60
2011,05,07,15,33,10.60
2011,05,07,15,34,10.60
2011,05,07,15,35,10.60
2011,05,07,15,36,10.60
2011,05,07,15,37,10.70
2011,05,07,15,38,10.80
2011,05,07,15,39,10.80
2011,05,07,15,40,10.80
2011,05,07,15,41,10.80
2011,05,07,15,42,10.70
2011,05,07,15,43,10.60
2011,05,07,15,44,10.60
2011,05,07,15,45,10.60
2011,05,07,15,46,10.60
2011,05,07,15,47,10.60
2011,05,07,15,48,10.60
2011,05,07,15,49,10.70
2011,05,07,15,50,10.60
2011,05,07,15,51,10.60
2011,05,07,15,52,10.60
2011,05,07,15,53,10.60
2011,05,07,15,54,10.60
2011,05,07,15,55,10.60
2011,05,07,15,56,10.60
2011,05,07,15,57,10.60
2011,05,07,15,58,10.60
2011,05,07,15,59,10.50
2011,05,07,16,00,10.50
2011,05,07,16,01,10.50
2011,05,07,16,02,10.50
2011,05,07,16,03,10.60
2011,05,07,16,04,10.50
2011,05,07,16,05,10.50
2011,05,07,16,06,10.50
2011,05,07,16,07,10.50
2011,05,07,16,08,10.50
2011,05,07,16,09,10.60
2011,05,07,16,10,10.60
2011,05,07,16,11,10.70
2011,05,07,16,12,10.70
2011,05,07,16,13,10.70
2011,05,07,16,14,10.70
2011,05,07,16,15,10.70
2011,05,07,16,16,10.70
2011,05,07,16,17,10.70
2011,05,07,16,18,10.70
2011,05,07,16,19,10.70
2011,05,07,16,20,10.70
2011,05,07,16,21,10.70
2011,05,07,16,22,10.70
2011,05,07,16,23,10.70
2011,05,07,16,24,10.70
2011,05,07,16,25,10.80
2011,05,07,16,26,10.90
2011,05,07,16,27,10.90
2011,05,07,16,28,11.00
2011,05,07,16,29,11.00
2011,05,07,16,30,11.00
2011,05,07,16,31,11.10
2011,05,07,16,32,11.10
2011,05,07,16,33,11.10
2011,05,07,16,34,11.10
2011,05,07,16,35,11.10
2011,05,07,16,36,11.10
2011,05,07,16,37,11.10
2011,05,07,16,38,11.10
2011,05,07,16,39,11.10
2011,05,07,16,40,11.20
2011,05,07,16,41,11.20
2011,05,07,16,42,11.20
2011,05,07,16,43,11.20
2011,05,07,16,44,11.10
2011,05,07,16,45,11.10
2011,05,07,16,46,11.00
2011,05,07,16,47,10.90
2011,05,07,16,48,10.90
2011,05,07,16,49,10.90
2011,05,07,16,50,10.90
2011,05,07,16,51,10.90
2011,05,07,16,52,10.90
2011,05,07,16,53,10.90
2011,05,07,16,54,11.00
2011,05,07,16,55,11.00
2011,05,07,16,56,11.00
2011,05,07,16,57,11.10
2011,05,07,16,58,11.10
2011,05,07,16,59,11.00
2011,05,07,17,00,11.00
2011,05,07,17,01,11.10
2011,05,07,17,02,11.10
2011,05,07,17,03,11.10
2011,05,07,17,04,11.10
2011,05,07,17,05,11.10
2011,05,07,17,06,11.10
2011,05,07,17,07,11.00
2011,05,07,17,08,11.00
2011,05,07,17,09,11.00
2011,05,07,17,10,11.10
2011,05,07,17,11,11.10
2011,05,07,17,12,11.10
2011,05,07,17,13,11.10
2011,05,07,17,14,11.10
2011,05,07,17,15,11.10
2011,05,07,17,16,11.10
2011,05,07,17,17,11.10
2011,05,07,17,18,11.10
2011,05,07,17,19,11.10
2011,05,07,17,20,11.10
2011,05,07,17,21,11.10
2011,05,07,17,22,11.10
2011,05,07,17,23,11.00
2011,05,07,17,24,11.00
2011,05,07,17,25,11.00
2011,05,07,17,26,10.90
2011,05,07,17,27,10.90
2011,05,07,17,28,10.90
2011,05,07,17,29,10.90
2011,05,07,17,30,11.00
2011,05,07,17,31,11.00
2011,05,07,17,32,11.00
2011,05,07,17,33,10.90
2011,05,07,17,34,10.90
2011,05,07,17,35,10.90
2011,05,07,17,36,10.90
2011,05,07,17,37,10.90
2011,05,07,17,38,10.90
2011,05,07,17,39,10.90
2011,05,07,17,40,10.80
2011,05,07,17,41,10.80
2011,05,07,17,42,10.80
2011,05,07,17,43,10.70
2011,05,07,17,44,10.70
2011,05,07,17,45,10.70
2011,05,07,17,46,10.70
2011,05,07,17,47,10.70
2011,05,07,17,48,10.70
2011,05,07,17,49,10.80
2011,05,07,17,50,10.80
2011,05,07,17,51,10.80
2011,05,07,17,52,10.80
2011,05,07,17,53,10.80
2011,05,07,17,54,10.80
2011,05,07,17,55,10.80
2011,05,07,17,56,10.80
2011,05,07,17,57,10.80
2011,05,07,17,58,10.80
2011,05,07,17,59,10.80
2011,05,07,18,00,10.80
2011,05,07,18,01,10.80
2011,05,07,18,02,10.80
2011,05,07,18,03,10.70
2011,05,07,18,04,10.60
2011,05,07,18,05,10.60
2011,05,07,18,06,10.60
2011,05,07,18,07,10.60
2011,05,07,18,08,10.60
2011,05,07,18,09,10.70
2011,05,07,18,10,10.70
2011,05,07,18,11,10.80
2011,05,07,18,12,10.80
2011,05,07,18,13,10.80
2011,05,07,18,14,10.80
2011,05,07,18,15,10.80
2011,05,07,18,16,10.80
2011,05,07,18,17,10.80
2011,05,07,18,18,10.80
2011,05,07,18,19,10.90
2011,05,07,18,20,10.90
2011,05,07,18,21,10.90
2011,05,07,18,22,10.90
2011,05,07,18,23,10.80
2011,05,07,18,24,10.80
2011,05,07,18,25,10.80
2011,05,07,18,26,10.80
2011,05,07,18,27,10.80
2011,05,07,18,28,10.80
2011,05,07,18,29,10.90
2011,05,07,18,30,11.00
2011,05,07,18,31,11.10
2011,05,07,18,32,11.20
2011,05,07,18,33,11.30
2011,05,07,18,34,11.30
2011,05,07,18,35,11.30
2011,05,07,18,36,11.30
2011,05,07,18,37,11.30
2011,05,07,18,38,11.30
2011,05,07,18,39,11.30
2011,05,07,18,40,11.30
2011,05,07,18,41,11.30
2011,05,07,18,42,11.40
2011,05,07,18,43,11.50
2011,05,07,18,44,11.50
2011,05,07,18,45,11.60
2011,05,07,18,46,11.70
2011,05,07,18,47,11.70
2011,05,07,18,48,11.60
2011,05,07,18,49,11.60
2011,05,07,18,50,11.60
2011,05,07,18,51,11.60
2011,05,07,18,52,11.70
2011,05,07,18,53,11.70
2011,05,07,18,54,11.70
2011,05,07,18,55,11.60
2011,05,07,18,56,11.60
2011,05,07,18,57,11.50
2011,05,07,18,58,11.50
2011,05,07,18,59,11.40
2011,05,07,19,00,11.40
2011,05,07,19,01,11.40
2011,05,07,19,02,11.30
2011,05,07,19,03,11.30
2011,05,07,19,04,11.30
2011,05,07,19,05,11.40
2011,05,07,19,06,11.40
2011,05,07,19,07,11.40
2011,05,07,19,08,11.40
2011,05,07,19,09,11.40
2011,05,07,19,10,11.40
2011,05,07,19,11,11.40
2011,05,07,19,12,11.40
2011,05,07,19,13,11.40
2011,05,07,19,14,11.40
2011,05,07,19,15,11.40
2011,05,07,19,16,11.40
2011,05,07,19,17,11.40
2011,05,07,19,18,11.40
2011,05,07,19,19,11.40
2011,05,07,19,20,11.40
2011,05,07,19,21,11.40
2011,05,07,19,22,11.30
2011,05,07,19,23,11.30
2011,05,07,19,24,11.30
2011,05,07,19,25,11.30
2011,05,07,19,26,11.20
2011,05,07,19,27,11.20
2011,05,07,19,28,11.20
2011,05,07,19,29,11.20
2011,05,07,19,30,11.20
2011,05,07,19,31,11.20
2011,05,07,19,32,11.20
2011,05,07,19,33,11.20
2011,05,07,19,34,11.10
2011,05,07,19,35,11.10
2011,05,07,19,36,11.00
2011,05,07,19,37,11.00
2011,05,07,19,38,11.00
2011,05,07,19,39,11.00
2011,05,07,19,40,11.00
2011,05,07,19,41,10.90
2011,05,07,19,42,10.90
2011,05,07,19,43,10.80
2011,05,07,19,44,10.80
2011,05,07,19,45,10.70
2011,05,07,19,46,10.60
2011,05,07,19,47,10.60
2011,05,07,19,48,10.50
2011,05,07,19,49,10.40
2011,05,07,19,50,10.40
2011,05,07,19,51,10.30
2011,05,07,19,52,10.30
2011,05,07,19,53,10.30
2011,05,07,19,54,10.40
2011,05,07,19,55,10.40
2011,05,07,19,56,10.40
2011,05,07,19,57,10.40
2011,05,07,19,58,10.40
2011,05,07,19,59,10.40
2011,05,07,20,00,10.40
2011,05,07,20,01,10.40
2011,05,07,20,02,10.40
2011,05,07,20,03,10.40
2011,05,07,20,04,10.40
2011,05,07,20,05,10.40
2011,05,07,20,06,10.40
2011,05,07,20,07,10.40
2011,05,07,20,08,10.40
2011,05,07,20,09,10.40
2011,05,07,20,10,10.40
2011,05,07,20,11,10.40
2011,05,07,20,12,10.40
2011,05,07,20,13,10.40
2011,05,07,20,14,10.40
2011,05,07,20,15,10.30
2011,05,07,20,16,10.30
2011,05,07,20,17,10.30
2011,05,07,20,18,10.30
2011,05,07,20,19,10.20
2011,05,07,20,20,10.20
2011,05,07,20,21,10.10
2011,05,07,20,22,10.10
2011,05,07,20,23,10.00
2011,05,07,20,24,10.00
2011,05,07,20,25,9.90
2011,05,07,20,26,9.90
2011,05,07,20,27,9.90
2011,05,07,20,28,9.80
2011,05,07,20,29,9.80
2011,05,07,20,30,9.80
2011,05,07,20,31,9.80
2011,05,07,20,32,9.70
2011,05,07,20,33,9.70
2011,05,07,20,34,9.70
2011,05,07,20,35,9.60
2011,05,07,20,36,9.60
2011,05,07,20,37,9.60
2011,05,07,20,38,9.60
2011,05,07,20,39,9.60
2011,05,07,20,40,9.50
2011,05,07,20,41,9.50
2011,05,07,20,42,9.40
2011,05,07,20,43,9.40
2011,05,07,20,44,9.40
2011,05,07,20,45,9.40
2011,05,07,20,46,9.30
2011,05,07,20,47,9.30
2011,05,07,20,48,9.30
2011,05,07,20,49,9.20
2011,05,07,20,50,9.20
2011,05,07,20,51,9.10
2011,05,07,20,52,9.10
2011,05,07,20,53,9.10
2011,05,07,20,54,9.00
2011,05,07,20,55,9.00
2011,05,07,20,56,8.90
2011,05,07,20,57,8.90
2011,05,07,20,58,8.80
2011,05,07,20,59,8.80
2011,05,07,21,00,8.80
2011,05,07,21,01,8.70
2011,05,07,21,02,8.70
2011,05,07,21,03,8.70
2011,05,07,21,04,8.60
2011,05,07,21,05,8.60
2011,05,07,21,06,8.60
2011,05,07,21,07,8.60
2011,05,07,21,08,8.50
2011,05,07,21,09,8.50
2011,05,07,21,10,8.50
2011,05,07,21,11,8.40
2011,05,07,21,12,8.40
2011,05,07,21,13,8.40
2011,05,07,21,14,8.40
2011,05,07,21,15,8.40
2011,05,07,21,16,8.30
2011,05,07,21,17,8.30
2011,05,07,21,18,8.30
2011,05,07,21,19,8.20
2011,05,07,21,20,8.20
2011,05,07,21,21,8.10
2011,05,07,21,22,8.10
2011,05,07,21,23,8.00
2011,05,07,21,24,7.90
2011,05,07,21,25,7.90
2011,05,07,21,26,7.90
2011,05,07,21,27,7.80
2011,05,07,21,28,7.80
2011,05,07,21,29,7.80
2011,05,07,21,30,7.80
2011,05,07,21,31,7.70
2011,05,07,21,32,7.70
2011,05,07,21,33,7.70
2011,05,07,21,34,7.70
2011,05,07,21,35,7.70
2011,05,07,21,36,7.70
2011,05,07,21,37,7.70
2011,05,07,21,38,7.70
2011,05,07,21,39,7.60
2011,05,07,21,40,7.60
2011,05,07,21,41,7.60
2011,05,07,21,42,7.60
2011,05,07,21,43,7.60
2011,05,07,21,44,7.60
2011,05,07,21,45,7.60
2011,05,07,21,46,7.60
2011,05,07,21,47,7.60
2011,05,07,21,48,7.50
2011,05,07,21,49,7.50
2011,05,07,21,50,7.40
2011,05,07,21,51,7.40
2011,05,07,21,52,7.40
2011,05,07,21,53,7.30
2011,05,07,21,54,7.30
2011,05,07,21,55,7.30
2011,05,07,21,56,7.20
2011,05,07,21,57,7.20
2011,05,07,21,58,7.20
2011,05,07,21,59,7.20
2011,05,07,22,00,7.20
2011,05,07,22,01,7.10
2011,05,07,22,02,7.10
2011,05,07,22,03,7.10
2011,05,07,22,04,7.10
2011,05,07,22,05,7.00
2011,05,07,22,06,7.00
2011,05,07,22,07,7.00
2011,05,07,22,08,7.00
2011,05,07,22,09,7.00
2011,05,07,22,10,6.90
2011,05,07,22,11,6.90
2011,05,07,22,12,6.90
2011,05,07,22,13,6.80
2011,05,07,22,14,6.80
2011,05,07,22,15,6.80
2011,05,07,22,16,6.70
2011,05,07,22,17,6.70
2011,05,07,22,18,6.70
2011,05,07,22,19,6.70
2011,05,07,22,20,6.70
2011,05,07,22,21,6.60
2011,05,07,22,22,6.60
2011,05,07,22,23,6.60
2011,05,07,22,24,6.60
2011,05,07,22,25,6.60
2011,05,07,22,26,6.50
2011,05,07,22,27,6.50
2011,05,07,22,28,6.50
2011,05,07,22,29,6.50
2011,05,07,22,30,6.50
2011,05,07,22,31,6.50
2011,05,07,22,32,6.50
2011,05,07,22,33,6.50
2011,05,07,22,34,6.40
2011,05,07,22,35,6.40
2011,05,07,22,36,6.40
2011,05,07,22,37,6.40
2011,05,07,22,38,6.40
2011,05,07,22,39,6.40
2011,05,07,22,40,6.40
2011,05,07,22,41,6.30
2011,05,07,22,42,6.30
2011,05,07,22,43,6.30
2011,05,07,22,44,6.30
2011,05,07,22,45,6.30
2011,05,07,22,46,6.30
2011,05,07,22,47,6.30
2011,05,07,22,48,6.30
2011,05,07,22,49,6.30
2011,05,07,22,50,6.30
2011,05,07,22,51,6.30
2011,05,07,22,52,6.30
2011,05,07,22,53,6.30
2011,05,07,22,54,6.30
2011,05,07,22,55,6.30
2011,05,07,22,56,6.30
2011,05,07,22,57,6.30
2011,05,07,22,58,6.30
2011,05,07,22,59,6.30
2011,05,07,23,00,6.30
2011,05,07,23,01,6.30
2011,05,07,23,02,6.30
2011,05,07,23,03,6.30
2011,05,07,23,04,6.20
2011,05,07,23,05,6.20
2011,05,07,23,06,6.20
2011,05,07,23,07,6.20
2011,05,07,23,08,6.20
2011,05,07,23,09,6.20
2011,05,07,23,10,6.20
2011,05,07,23,11,6.20
2011,05,07,23,12,6.20
2011,05,07,23,13,6.20
2011,05,07,23,14,6.20
2011,05,07,23,15,6.20
2011,05,07,23,16,6.20
2011,05,07,23,17,6.20
2011,05,07,23,18,6.20
2011,05,07,23,19,6.20
2011,05,07,23,20,6.20
2011,05,07,23,21,6.20
2011,05,07,23,22,6.20
2011,05,07,23,23,6.20
2011,05,07,23,24,6.20
2011,05,07,23,25,6.20
2011,05,07,23,26,6.20
2011,05,07,23,27,6.20
2011,05,07,23,28,6.20
2011,05,07,23,29,6.20
2011,05,07,23,30,6.20
2011,05,07,23,31,6.20
2011,05,07,23,32,6.20
2011,05,07,23,33,6.20
2011,05,07,23,34,6.20
2011,05,07,23,35,6.20
2011,05,07,23,36,6.20
2011,05,07,23,37,6.20
2011,05,07,23,38,6.20
2011,05,07,23,39,6.20
2011,05,07,23,40,6.20
2011,05,07,23,41,6.20
2011,05,07,23,42,6.20
2011,05,07,23,43,6.20
2011,05,07,23,44,6.20
2011,05,07,23,45,6.20
2011,05,07,23,46,6.20
2011,05,07,23,47,6.20
2011,05,07,23,48,6.20
2011,05,07,23,49,6.20
2011,05,07,23,50,6.20
2011,05,07,23,51,6.20
2011,05,07,23,52,6.20
2011,05,07,23,53,6.20
2011,05,07,23,54,6.30
2011,05,07,23,55,6.30
2011,05,07,23,56,6.30
2011,05,07,23,57,6.30
2011,05,07,23,58,6.30
2011,05,07,23,59,6.30
